This demonstration page uses our WeatherBlox Daily Observations layout. Learn more.

Left ArrowRight Arrow

Hourly Observations for October 11, 2019

Temp ( °F °C ) Dew Point ( °F °C ) Humidity (%) Winds ( mph kmh ) Pressure ( in mb ) Visibility ( mi km ) Precip ( " mm )
12:53 am 00:53 Mostly Cloudy 64 17.8 58 14.4 81 81 Calm 30.07 1018 10 16 0.00 0.00
1:53 am 01:53 Mostly Cloudy 65 18.3 58 14.4 78 78 Calm 30.05 1018 10 16 0.00 0.00
2:53 am 02:53 Cloudy 64 17.8 58 14.4 81 81 Calm 30.04 1017 10 16 0.00 0.00
3:53 am 03:53 Mostly Cloudy 64 17.8 58 14.4 81 81 ENE 3 6 30.03 1017 10 16 0.00 0.00
4:53 am 04:53 Mostly Cloudy 62 16.7 58 14.4 86 86 Calm 30.03 1017 10 16 0.00 0.00
5:53 am 05:53 Cloudy 63 17.2 58 14.4 84 84 Calm 30.03 1017 10 16 0.00 0.00
6:53 am 06:53 Cloudy 62 16.7 58 14.4 86 86 Calm 30.04 1017 10 16 0.00 0.00
7:53 am 07:53 Mostly Sunny 64 17.8 58 14.4 81 81 Calm 30.03 1017 10 16 0.00 0.00
8:53 am 08:53 Cloudy 65 18.3 59 15 81 81 VRB 3 6 30.04 1017 10 16 0.02 0.51
9:53 am 09:53 Cloudy 67 19.4 60 15.6 79 79 VRB 3 6 30.04 1017 10 16 0.00 0.00
10:53 am 10:53 Cloudy with Light Rain 69 20.6 59 15 70 70 Calm 30.05 1018 9 14 0.00 0.00
11:53 am 11:53 Mostly Cloudy 71 21.7 59 15 66 66 VRB 3 6 30.03 1017 10 16 0.00 0.00
12:53 pm 12:53 Mostly Sunny 75 23.9 59 15 58 58 SSW 6 9 30.01 1016 10 16 0.00 0.00
1:53 pm 13:53 Mostly Cloudy 75 23.9 59 15 58 58 SW 9 15 29.99 1016 10 16 0.00 0.00
2:39 pm 14:39 Cloudy with Heavy Rain 68 20 64 17.8 87 87 WSW 10 17 30.00 1016 2 3 0.07 1.78
2:46 pm 14:46 Cloudy with Heavy Rain 66 18.9 64 17.8 93 93 SW 7 11 30.00 1016 1 2 0.11 2.79
2:53 pm 14:53 Cloudy with Heavy Rain 66 18.9 64 17.8 93 93 undefined N/A 30.00 1016 1 2 0.16 4.06
3:05 pm 15:05 Cloudy with Light Rain 66 18.9 64 17.8 93 93 VRB 5 7 29.99 1016 3 5 0.04 1.02
3:53 pm 15:53 Cloudy 68 20 64 17.8 87 87 VRB 3 6 29.96 1015 10 16 0.04 1.02
4:53 pm 16:53 Mostly Cloudy 70 21.1 64 17.8 82 82 VRB 3 6 29.95 1014 10 16 0.00 0.00
5:53 pm 17:53 Cloudy 70 21.1 62 16.7 76 76 Calm 29.93 1013 10 16 0.00 0.00
6:53 pm 18:53 Cloudy 70 21.1 62 16.7 76 76 Calm 29.91 1013 10 16 0.00 0.00
7:53 pm 19:53 Cloudy 71 21.7 60 15.6 68 68 SW 6 9 29.93 1013 10 16 0.00 0.00
8:53 pm 20:53 Cloudy 66 18.9 64 17.8 93 93 VRB 6 9 29.93 1014 10 16 0.01 0.25
9:15 pm 21:15 Cloudy with Rain 58 14.4 57 13.9 97 97 WNW 21 33 29.97 1015 5 8 0.02 0.51
9:35 pm 21:35 Cloudy with Light Rain 56 13.3 54 12.2 93 93 WNW 16 26 29.99 1016 7 11 0.03 0.76
9:53 pm 21:53 Cloudy 53 11.7 51 10.6 93 93 WNW 15 24 30.02 1017 9 14 0.03 0.76
10:00 pm 22:00 Cloudy with Light Rain 53 11.7 50 10 89 89 WNW 16 26 30.03 1017 9 14 0.00 0.00
10:17 pm 22:17 Cloudy with Light Rain 51 10.6 49 9.4 92 92 WNW 20 31 30.05 1018 7 11 0.00 0.00
10:53 pm 22:53 Cloudy with Light Rain 50 10 48 8.9 93 93 WNW 15 24 30.05 1018 5 8 0.04 1.02
11:04 pm 23:04 Cloudy with Light Rain 49 9.4 48 8.9 97 97 WNW 8 13 30.07 1018 7 11 0.00 0.00
11:11 pm 23:11 Cloudy with Light Rain 49 9.4 47 8.3 93 93 WNW 12 19 30.07 1018 9 14 0.01 0.25
11:20 pm 23:20 Cloudy with Light Rain 48 8.9 46 7.8 93 93 WNW 10 17 30.08 1019 9 14 0.01 0.25
11:27 pm 23:27 Cloudy with Rain 48 8.9 46 7.8 93 93 WNW 16 26 30.08 1019 4 6 0.03 0.76
11:53 pm 23:53 Cloudy with Light Rain 46 7.8 44 6.7 93 93 WNW 12 19 30.07 1018 5 8 0.07 1.78

Powered by AerisWeather